This demonstration page uses our WeatherBlox Daily Observations layout. Learn more.

Left ArrowRight Arrow

Hourly Observations for December 31, 2018

Temp ( °F °C ) Dew Point ( °F °C ) Humidity (%) Winds ( mph kmh ) Pressure ( in mb ) Visibility ( mi km ) Precip ( " mm )
12:57 am 00:57 Clear 17 -8.3 15 -9.4 92 92 NNW 5 7 29.67 1005 10 16 0.00 0.00
1:57 am 01:57 Clear 18 -7.8 17 -8.3 96 96 NNW 7 11 29.67 1005 10 16 0.00 0.00
2:57 am 02:57 Clear 16 -8.9 14 -10 92 92 NW 7 11 29.66 1004 10 16 0.00 0.00
3:57 am 03:57 Clear 16 -8.9 14 -10 92 92 WSW 3 6 29.67 1005 10 16 0.00 0.00
4:57 am 04:57 Clear 17 -8.3 15 -9.4 92 92 Calm 29.65 1004 10 16 0.00 0.00
5:57 am 05:57 Clear 19 -7.2 17 -8.3 92 92 NNW 6 9 29.70 1006 10 16 0.00 0.00
6:57 am 06:57 Mostly Clear 23 -5 22 -5.6 96 96 N 17 28 29.71 1006 10 16 0.00 0.00
7:17 am 07:17 Mostly Cloudy 27 -3 25 -4 93 93 N 25 41 29.80 1009 10 16 0.00 0.00
7:43 am 07:43 Cloudy 28 -2 27 -3 93 93 N 31 50 29.80 1009 10 16 0.00 0.00
7:57 am 07:57 Cloudy 29 -1.7 27 -2.8 92 92 N 30 48 29.73 1007 9 14 0.00 0.00
8:57 am 08:57 Cloudy 23 -5 20 -6.7 88 88 N 33 54 29.83 1010 8 13 0.00 0.03
9:11 am 09:11 Cloudy 21 -6 19 -7 93 93 N 29 46 29.91 1013 10 16 0.00 0.00
9:57 am 09:57 Cloudy 20 -6.7 15 -9.4 81 81 N 30 48 29.91 1013 9 14 0.00 0.00
10:21 am 10:21 Cloudy 19 -7 12 -11 73 73 N 30 48 30.00 1016 10 16 0.00 0.00
10:57 am 10:57 Windy with Snow Likely 18 -7.8 12 -11.1 77 77 N 30 48 29.96 1015 9 14 0.00 0.03
11:57 am 11:57 Windy with Snow Likely 17 -8.3 10 -12.2 74 74 N 29 46 29.98 1015 9 14 0.00 0.03
12:57 pm 12:57 Windy with Snow Likely 16 -8.9 9 -12.8 74 74 N 29 46 30.00 1016 8 13 0.00 0.03
1:32 pm 13:32 Windy with Snow Likely 16 -9 9 -13 73 73 N 26 43 30.09 1019 2 3 0.00 0.03
1:48 pm 13:48 Windy with Snow Likely 16 -9 9 -13 73 73 NNW 29 46 30.09 1019 3 5 0.00 0.03
1:57 pm 13:57 Windy with Snow Likely 16 -8.9 9 -12.8 74 74 N 33 54 30.04 1017 4 6 0.00 0.03
2:06 pm 14:06 Windy with Snow Likely 16 -9 9 -13 73 73 N 29 46 30.09 1019 6 10 0.00 0.00
2:35 pm 14:35 Windy with Snow Likely 16 -9 9 -13 73 73 NNW 26 43 30.15 1021 8 13 0.00 0.03
2:57 pm 14:57 Windy with Snow Likely 15 -9.4 7 -13.9 70 70 N 29 46 30.08 1019 9 14 0.00 0.03
3:53 pm 15:53 Cloudy 12 -11 5 -15 73 73 N 33 54 30.21 1023 9 14 0.00 0.00
3:57 pm 15:57 Cloudy 12 -11.1 5 -15 73 73 N 28 44 30.14 1021 9 14 0.00 0.03
4:27 pm 16:27 Cloudy 12 -11 5 -15 73 73 N 37 59 30.24 1024 8 13 0.00 0.00
4:43 pm 16:43 Cloudy 10 -12 3 -16 72 72 N 28 44 30.30 1026 10 16 0.00 0.00
4:57 pm 16:57 Cloudy 10 -12.2 4 -15.6 76 76 N 29 46 30.19 1022 10 16 0.00 0.03
6:27 pm 18:27 Cloudy 9 -13 3 -16 78 78 N 30 48 30.33 1027 10 16 0.00 0.00
6:57 pm 18:57 Cloudy 8 -13.3 1 -17.2 73 73 N 28 44 30.29 1026 10 16 0.00 0.00
7:06 pm 19:06 Cloudy 9 -13 1 -17 72 72 N 22 35 30.45 1031 10 16 0.00 0.00
7:14 pm 19:14 Cloudy 9 -13 1 -17 72 72 N 28 44 30.45 1031 10 16 0.00 0.00
7:46 pm 19:46 Cloudy 9 -13 1 -17 72 72 N 24 39 30.45 1031 10 16 0.00 0.00
7:57 pm 19:57 Cloudy 7 -13.9 1 -17.2 76 76 N 25 41 30.30 1026 10 16 0.00 0.00
8:36 pm 20:36 Windy with Snow Likely 7 -14 1 -17 78 78 N 28 44 30.48 1032 9 14 0.00 0.03
8:57 pm 20:57 Cloudy 7 -13.9 0 -17.8 73 73 N 18 30 30.39 1029 10 16 0.00 0.03
9:57 pm 21:57 Cloudy 7 -13.9 -3 -19.4 63 63 N 24 39 30.42 1030 10 16 0.00 0.00
10:57 pm 22:57 Cloudy 7 -13.9 -4 -20 60 60 N 24 39 30.43 1031 10 16 0.00 0.00
11:57 pm 23:57 Cloudy 6 -14.4 -5 -20.6 60 60 N 16 26 30.46 1032 10 16 0.00 0.00

Powered by AerisWeather